824  
ASUS43 KFSD 222210  
RWRFSD  
 
WEATHER ROUNDUP FOR SE SOUTH DAKOTA/SW MINNESOTA/NW IOWA  
NATIONAL WEATHER SERVICE SIOUX FALLS SD  
400 PM CST WED JAN 22 2020  
 
NOTE: "FAIR" INDICATES FEW OR NO CLOUDS BELOW 12,000 FEET WITH NO  
SIGNIFICANT WEATHER AND OR S TO VISIBILITY
.  
 
 
SDZ038>040-050-052>070-222300-  
SOUTHEAST SOUTH DAKOTA  
 
CITY SKY/WX TMP DP RH WIND PRES REMARKS
 
BROOKINGS CLOUDY 34 34 100 S6 29.75R FOG WCI 29  
CHAMBERLAIN CLOUDY 37 34 89 NW7 29.76R  
HURON CLOUDY 34 28 79 CALM 29.77R  
MADISON CLOUDY 32 32 100 S8 29.74S WCI 25  
MITCHELL CLOUDY 37 32 82 SW5 29.76R  
SIOUX FALLS CLOUDY 35 32 88 S9 29.77R WCI 28  
WINNER CLOUDY 41 30 65 W5 29.76R  
YANKTON CLOUDY 37 33 85 S5 29.77R  

 
 
MNZ071-072-080-081-089-090-097-098-222300-  
SOUTHWEST MINNESOTA  
 
CITY SKY/WX TMP DP RH WIND PRES REMARKS
 
FAIRMONT LGT SNOW 33 31 92 S16 29.83S FOG WCI 23  
JACKSON CLOUDY 34 32 93 S10 29.81R WCI 26  
LUVERNE CLOUDY 32 32 100 S8 29.79R FOG WCI 25  
MARSHALL CLOUDY 35 33 92 S6 29.78S  
MONTEVIDEO CLOUDY N/A N/A N/A CALM 29.78S  
PIPESTONE FOG 34 34 100 S9 29.75S VSB<1/4 WCI 26  
REDWOOD FALLS CLOUDY 34 32 92 S7 29.80R WCI 28  
WINDOM CLOUDY 34 30 86 S12 29.79S WCI 25  
WORTHINGTON CLOUDY 33 32 96 S10 29.79R WCI 25  

 
 
IAZ001>003-012>014-020>022-031-032-NEZ013-014-SDZ071-222300-  
NORTHWEST IOWA  
 
CITY SKY/WX TMP DP RH WIND PRES REMARKS
 
CHEROKEE CLOUDY 33 33 99 S8 29.81F WCI 26  
DENISON LGT SNOW 34 34 100 S9 29.84R VSB 1 WCI 26  
LE MARS CLOUDY 34 34 100 S13 29.79S WCI 25  
MAURICE CLOUDY 34 32 93 S10 29.79R WCI 26  
SHELDON CLOUDY 34 34 100 S12 29.77S WCI 25  
SIOUX CITY CLOUDY N/A N/A N/A SE9 29.80R  
SPENCER CLOUDY 35 31 85 S14 29.81S WCI 26  
STORM LAKE MIX PCPN 32 32 100 S13 29.78S WCI 22  

 
 
ABBREVIATIONS USED IN REMARKS  
TC - TEMPERATURE IN CELSIUS  
WCI - WIND CHILL INDEX  
HX - HEAT INDEX  
VSB - VISIBILITY  
 
 
 
CLICK HERE TO GO TO PREVIOUS BULLETINS.

The Nexlab SD Page
The Nexlab IA Page
The Nexlab MN Page
The Nexlab NE Page Main Text Page